Location: Cedar Brake
(32.2526°N, 97.8459°W)
Time: 17:32:00
(UTC+00:00)

Cosmos 2218 Rocket - Pass Details

Date: 22 April 2026
Orbit: 955 x 1005 km, 82.9° (Epoch: 9 May)

Event Time Altitude Azimuth Distance (km) Brightness Sun altitude
Rises 02:08:07 0° 187° (S) 3,621 6.8 -13.3°
Reaches altitude 10° 02:10:36 10° 189° (S) 2,676 6.1 -13.8°
Maximum altitude 02:16:43 79° 276° (W) 974 4.1 -15.0°
Drops below altitude 10° 02:22:52 10° 3° (N) 2,692 6.6 -16.2°
Sets 02:25:23 0° 5° (N) 3,645 7.3 -16.6°
